Tracking 17145 objects as of 29-May-2015
HD Live streaming from Space Station

CRRES DEB (CANISTER)

Track CRRES DEB (CANISTER) now!
CRRES DEB (CANISTER) is classified as:


NORAD ID: 27051
Int'l Code: 1990-065U
Perigee: 316.3 km
Apogee: 30,365.2 km
Inclination: 17.9 °
Period: 530.6 minutes
Semi major axis: 21711 km
RCS: 0.1304 m2 (medium)
Launch date: July 25, 1990
Source: United States (US)

Note: This is SATELLITE DEBRIS
Your satellite tracking list
Your tracking list is empty





NASA's NSSDC Master Catalog

Two Line Element Set (TLE):
1 27051U 90065U   15147.29080260  .00000676  00000-0  39904-3 0  9997
2 27051 017.8977 231.7778 6919975 267.4126 018.6931 02.71370002148873

Source of the keplerian elements: AFSPC

N2YO: 354